Home > Time Zones > World Clock > Weather > Sweden > Lund > Past weeks

Flag for Sweden Weather past 2 weeks in Lund, Sweden

Now
52 °F

Light rain. Passing clouds.


Feels Like: 51 °F
Forecast: 55 / 60 °F
Wind: 5 mph from South

Location: Malmo / Sturup

Current Time: Jul 30, 2015 at 2:57:28 AM

Latest Report: Jul 30, 2015 at 2:20 AM


Visibility: N/A

Pressure: 29.50 "Hg

Humidity: 100%

Dew point: 52 °F

Location of LundLocation

Historic Weather in Lund — Graph

°F

Lund temperature yesterday

Maximum temperature yesterday: 63 °F (at 3:50 PM)
Minimum temperature yesterday: 50 °F (at 11:20 PM)
Average temperature yesterday: 58 °F

Past Weeks' High & Low Weather Summary

 TemperatureHumidityPressure
High73 °F (Jul 21, 3:20 PM)100% (Jul 17, 3:20 AM)30.04 "Hg (Jul 17, 3:20 AM)
Low45 °F (Jul 17, 4:20 AM)30% (Jul 17, 12:50 PM)29.42 "Hg (Jul 25, 7:20 PM)
Average60 °F76%29.79 "Hg
* Reported Jul 15 1:20 AM — Jul 30 1:20 AM, Lund, Weather by CustomWeather, © 2015

Note: Actual official high and low records may vary slightly from our data, if they occured in-between our weather recording intervals... More about our weather records

Advertising

Lund weather history for previous 24 hours

 ConditionsComfort  
Time TempWeatherWind HumidityBarometerVisibility
1:20 AM
Thu, Jul 30
52 °FClear.6 mph88%29.50 "Hg10 mi
12:50 AM52 °FPassing clouds.10 mph94%29.50 "HgN/A
12:20 AM50 °FPassing clouds.7 mph94%29.53 "HgN/A
11:50 PM
Wed, Jul 29
50 °FClear.6 mph94%29.53 "Hg10 mi
11:20 PM50 °FClear.7 mph94%29.53 "Hg10 mi
10:50 PM54 °FPassing clouds.8 mph88%29.53 "HgN/A
10:20 PM54 °FPassing clouds.7 mph88%29.53 "HgN/A
9:50 PM54 °FSunny.7 mph88%29.53 "Hg10 mi
9:20 PM55 °FSunny.10 mph82%29.53 "Hg10 mi
8:50 PM57 °FPassing clouds.10 mph77%29.53 "HgN/A
8:20 PM59 °FSunny.12 mph77%29.53 "Hg10 mi
7:50 PM59 °FSunny.14 mph77%29.53 "Hg10 mi
7:20 PM61 °FSunny.12 mph68%29.53 "Hg10 mi
6:50 PM59 °FPassing clouds.16 mph77%29.53 "HgN/A
6:20 PM61 °FPassing clouds.15 mph72%29.53 "HgN/A
5:50 PM61 °FSunny.18 mph68%29.53 "Hg10 mi
5:20 PM59 °FSunny.13 mph72%29.53 "Hg10 mi
4:50 PM61 °FPassing clouds.15 mph68%29.53 "HgN/A
4:20 PM59 °FScattered clouds.16 mph77%29.53 "HgN/A
3:50 PM63 °FScattered clouds.17 mph73%29.53 "HgN/A
3:20 PM61 °FScattered clouds.18 mph77%29.53 "HgN/A
2:50 PM59 °FScattered clouds.14 mph82%29.53 "HgN/A
2:20 PM57 °FSprinkles. Broken clouds.15 mph82%29.53 "HgN/A
1:50 PM61 °FSprinkles. Broken clouds.13 mph83%29.53 "HgN/A
1:20 PM61 °FBroken clouds.16 mph72%29.53 "HgN/A
12:50 PM61 °FBroken clouds.17 mph72%29.53 "HgN/A
12:20 PM59 °FOvercast.15 mph77%29.53 "HgN/A
11:50 AM61 °FPartly sunny.18 mph83%29.53 "HgN/A
11:20 AM61 °FBroken clouds.13 mph88%29.53 "HgN/A
10:50 AM59 °FBroken clouds.13 mph88%29.53 "HgN/A
10:20 AM59 °FLight rain. Broken clouds.14 mph88%29.53 "HgN/A
9:20 AM59 °FLight rain. Scattered clouds.12 mph88%29.53 "HgN/A
8:50 AM59 °FRain showers. Scattered clouds.12 mph94%29.50 "HgN/A
8:20 AM59 °FSprinkles. Scattered clouds.12 mph88%29.50 "HgN/A
7:50 AM59 °FScattered clouds.9 mph88%29.50 "HgN/A
7:20 AM59 °FRain showers. Broken clouds.10 mph88%29.50 "HgN/A
6:50 AM59 °FPartly sunny.10 mph88%29.50 "HgN/A
6:20 AM57 °FBroken clouds.14 mph94%29.50 "HgN/A
5:50 AM57 °FRain. Partly cloudy.13 mph100%29.50 "HgN/A
5:20 AM57 °FPartly cloudy.10 mph100%29.50 "HgN/A
4:50 AM57 °FPassing clouds.9 mph94%29.50 "HgN/A
4:20 AM57 °FPassing clouds.12 mph94%29.50 "HgN/A
3:50 AM57 °FLight rain. Passing clouds.13 mph94%29.47 "Hg6 mi
3:20 AM57 °FClear.13 mph94%29.50 "Hg10 mi
2:50 AM59 °FPartly cloudy.14 mph88%29.50 "HgN/A
2:20 AM59 °FPartly cloudy.13 mph94%29.50 "HgN/A
Weather by CustomWeather, © 2015

See weather overviewHow to use our weather pages